This is the latest recevied weather packets stored in our database for station/object KF4WSW-13. If no packets are shown the sender has not sent any weather packets the latest 10 day(s).
| Time | Temp. | Humidity | Pressure | Rain* | Wind** | Luminosity | Snow |
|---|---|---|---|---|---|---|---|
| 1777850394 | 23.89° C | 67% | 1013.6 hPa | 0 mm | - | 30 W/m² | - |
| 1777850092 | 23.89° C | 67% | 1013.7 hPa | 0 mm | - | 33 W/m² | - |
| 1777849788 | 23.89° C | 66% | 1013.8 hPa | 0 mm | - | 34 W/m² | - |
| 1777849485 | 23.89° C | 66% | 1014 hPa | 0 mm | - | 37 W/m² | - |
| 1777849183 | 23.89° C | 66% | 1013.5 hPa | 0 mm | - | 39 W/m² | - |
| 1777848879 | 23.89° C | 66% | 1013.6 hPa | 0 mm | - | 42 W/m² | - |
| 1777848574 | 23.89° C | 67% | 1013.6 hPa | 0 mm | - | 43 W/m² | - |
| 1777848272 | 23.89° C | 66% | 1013.5 hPa | 0 mm | - | 45 W/m² | - |
| 1777847970 | 23.89° C | 66% | 1013.5 hPa | 0 mm | - | 65 W/m² | - |
| 1777847667 | 23.89° C | 66% | 1013.6 hPa | 0 mm | - | 47 W/m² | - |
| 1777847362 | 23.89° C | 66% | 1013.7 hPa | 0 mm | - | 59 W/m² | - |
| 1777847061 | 23.89° C | 66% | 1013.8 hPa | 0 mm | - | 60 W/m² | - |
| 1777846759 | 23.89° C | 66% | 1013.4 hPa | 0 mm | - | 73 W/m² | - |
| 1777846457 | 23.89° C | 65% | 1013.7 hPa | 0 mm | - | 128 W/m² | - |
| 1777846153 | 23.89° C | 67% | 1013.5 hPa | 0 mm | - | 92 W/m² | - |
| 1777845850 | 23.89° C | 68% | 1013.6 hPa | 0 mm | - | 112 W/m² | - |
| 1777845547 | 23.89° C | 65% | 1013.6 hPa | 0 mm | - | 94 W/m² | - |
| 1777845244 | 23.89° C | 65% | 1013.6 hPa | 0 mm | - | 110 W/m² | - |
| 1777844942 | 23.89° C | 67% | 1013.7 hPa | 0 mm | - | 124 W/m² | - |
| 1777844639 | 23.89° C | 67% | 1013.6 hPa | 0 mm | - | 168 W/m² | - |
| 1777844336 | 24.44° C | 64% | 1013.7 hPa | 0 mm | - | 103 W/m² | - |
| 1777844034 | 23.89° C | 63% | 1013.5 hPa | 0 mm | - | 168 W/m² | - |
| 1777843730 | 23.89° C | 66% | 1013.7 hPa | 0 mm | - | 185 W/m² | - |
| 1777843428 | 23.89° C | 65% | 1013.8 hPa | 0 mm | - | 185 W/m² | - |
| 1777843125 | 23.89° C | 66% | 1013.5 hPa | 0 mm | - | 141 W/m² | - |
* Rain latest hour (hover to see other rain measurements)
** Current wind speed in m/s (hover to see current wind gust speed)